Location: Biltmore Gardens
(41.6070°N, 83.4666°W)
Time: 14:19:11
(UTC+00:00)

Cosmos 2251 Rocket - Pass Details

Date: 14 July 2020
Orbit: 765 x 792 km, 74.0° (Epoch: 04 August)

Event Time Altitude Azimuth Distance (km) Brightness Sun altitude
Exits shadow 06:34:03 56° 269° (W) 906 3.7 -25.6°
Maximum altitude 06:34:30 58° 292° (WNW) 887 3.7 -25.5°
Drops below altitude 10° 06:39:41 10° 12° (NNE) 2,312 7.0 -25.3°
Sets 06:42:06 0° 17° (NNE) 3,245 8.1 -25.2°
